Location: Molveno
(46.1500°N, 10.9667°E)
Time: 01:31:34
(UTC+00:00)

Cosmos 2154 Rocket - Pass Details

Date: 05 July 2020
Orbit: 967 x 995 km, 82.9° (Epoch: 11 August)

Event Time Altitude Azimuth Distance (km) Brightness Sun altitude
Exits shadow 21:23:05 24° 151° (SSE) 1,866 4.9 -16.2°
Maximum altitude 21:26:29 48° 91° (E) 1,250 4.4 -16.5°
Drops below altitude 10° 21:32:24 10° 19° (NNE) 2,724 7.0 -16.9°
Sets 21:35:00 0° 14° (NNE) 3,678 7.8 -17.1°
